Location: Karlsruhe
(49.0131°N, 8.3874°E)
Time: 03:03:23
(UTC+01:00)

ISS - Pass Details

Date: 14 November 2017
Orbit: 402 x 407 km, 51.6° (Epoch: 24 November)

Event Time Altitude Azimuth Distance (km) Brightness Sun altitude
Exits shadow 05:45:14 56° 241° (WSW) 487 -3.8 -17.8°
Maximum altitude 05:45:35 61° 207° (SSW) 462 -3.7 -17.8°
Drops below altitude 10° 05:48:48 10° 126° (SE) 1,452 -0.1 -17.3°
Sets 05:50:53 0° 122° (ESE) 2,308 1.2 -16.9°
